Globalstar M014

operational
NORAD ID: 25306 Int'l Des: 1998-023 Owner: GLOBT Country: US Constellation: globalstar
LEOCIRCULAR

About Globalstar M014

Description loading...

Live Position

Loading 3D Globe...

Upcoming Passes

Altitude History

Altitude vs Time

uPlot chart will show altitude changes over time

Two-Line Element Set

1 25306U 98023A 26062.46219631 -.00000090 00000-0 -22592-3 0 9990
2 25306 51.9813 227.8828 0001933 108.4502 265.7264 11.65484923221402
Epoch: Mar 3, 2026 • Age: 38 hours

Current Status

Altitude 1843.6 km
Velocity 6.97 km/s
Sub-Earth Point 49.26°N, 85.59°W
Launch Date Apr 24, 1998
Age 27.8 years
Type communications

Technical Details

Classification Payload
Mass 450.00 kg
Dry Mass 380.00 kg
Total Mass 450.00 kg
Length 1.50 m
Diameter 0.60 m
Span 12.00 m
Shape Box + 2 Pan
Manufacturer LOR
Bus Type LS-400
Phase Status In Orbit
Owner/State GLOBT/US

Large Constellations

Loading constellations...